VIS870 EETN-EEPU

Flight info

Callsign VIS870
Flight time N/A
Altitude 14000
Route NITSO
Aircraft C25C/M-SDE2E3FGHRWXY/LB1

Departure

Time 2026-05-05 18:36
Airport Lennart Meri Tallinn Airport (EETN)

Arrival

Time N/A
Airport Pärnu Airport (EEPU)
Time Latitude Longitude Altitude Speed Heading
2026-05-05 17:10 59.41700 24.80123 132 ft 0 kts 179°
2026-05-05 18:19 59.41698 24.80123 132 ft 0 kts 179°
2026-05-05 18:20 59.41702 24.80123 132 ft 2 kts 179°
2026-05-05 18:20 59.41718 24.80123 132 ft 2 kts 179°
2026-05-05 18:20 59.41734 24.80123 132 ft 2 kts 179°
2026-05-05 18:21 59.41750 24.80124 132 ft 2 kts 169°
2026-05-05 18:21 59.41753 24.80123 132 ft 0 kts 160°
2026-05-05 18:23 59.41748 24.80146 132 ft 5 kts 99°
2026-05-05 18:23 59.41746 24.80283 132 ft 15 kts 95°
2026-05-05 18:23 59.41698 24.80496 132 ft 15 kts 159°
2026-05-05 18:23 59.41601 24.80510 132 ft 13 kts 181°
2026-05-05 18:24 59.41518 24.80538 132 ft 11 kts 137°
2026-05-05 18:24 59.41506 24.80679 133 ft 11 kts 90°
2026-05-05 18:24 59.41506 24.80835 133 ft 12 kts 90°
2026-05-05 18:24 59.41506 24.81000 133 ft 13 kts 90°
2026-05-05 18:25 59.41504 24.81179 133 ft 14 kts 91°
2026-05-05 18:25 59.41505 24.81305 149 ft 14 kts 88°
2026-05-05 18:25 59.41503 24.81565 134 ft 15 kts 90°
2026-05-05 18:25 59.41503 24.81774 134 ft 16 kts 90°
2026-05-05 18:26 59.41503 24.81992 134 ft 16 kts 91°
2026-05-05 18:26 59.41485 24.82211 134 ft 16 kts 114°
2026-05-05 18:26 59.41501 24.82380 134 ft 12 kts 89°
2026-05-05 18:26 59.41502 24.82557 135 ft 15 kts 90°
2026-05-05 18:27 59.41500 24.82793 135 ft 20 kts 91°
2026-05-05 18:27 59.41500 24.83089 135 ft 24 kts 90°
2026-05-05 18:27 59.41499 24.83439 135 ft 27 kts 90°
2026-05-05 18:27 59.41497 24.83838 136 ft 31 kts 90°
2026-05-05 18:28 59.41495 24.84739 137 ft 33 kts 90°
2026-05-05 18:28 59.41488 24.84946 137 ft 6 kts 109°
2026-05-05 18:28 59.41439 24.84999 137 ft 11 kts 173°
2026-05-05 18:29 59.41411 24.85000 137 ft 0 kts 180°
2026-05-05 18:34 59.41409 24.85000 137 ft 4 kts 179°
2026-05-05 18:35 59.41335 24.84964 137 ft 12 kts 230°
2026-05-05 18:35 59.41323 24.84849 137 ft 0 kts 269°
2026-05-05 18:36 59.41323 24.84527 133 ft 73 kts 270°
2026-05-05 18:36 59.41327 24.82898 175 ft 157 kts 270°
2026-05-05 18:36 59.41351 24.80509 775 ft 196 kts 270°
2026-05-05 18:37 59.41370 24.77657 1712 ft 228 kts 271°
2026-05-05 18:37 59.41381 24.74264 2698 ft 261 kts 271°
2026-05-05 18:37 59.41385 24.70740 3723 ft 256 kts 271°
2026-05-05 18:37 59.41375 24.67276 4728 ft 252 kts 270°
2026-05-05 18:38 59.41352 24.63844 5698 ft 251 kts 270°
2026-05-05 18:38 59.41308 24.60427 6658 ft 250 kts 269°
2026-05-05 18:38 59.41255 24.57031 7610 ft 247 kts 267°
2026-05-05 18:38 59.41187 24.53685 8591 ft 243 kts 266°
2026-05-05 18:39 59.41104 24.50432 9514 ft 242 kts 264°
2026-05-05 18:39 59.40941 24.47113 10159 ft 248 kts 261°
2026-05-05 18:39 59.40663 24.43715 10625 ft 258 kts 258°
2026-05-05 18:39 59.40268 24.40207 11037 ft 267 kts 255°
2026-05-05 18:40 59.39762 24.36653 11489 ft 273 kts 252°
2026-05-05 18:40 59.38993 24.33302 12422 ft 261 kts 243°
2026-05-05 18:40 59.37646 24.31444 13428 ft 297 kts 170°
2026-05-05 18:40 59.35754 24.32535 14355 ft 260 kts 196°
2026-05-05 18:41 59.34320 24.31030 15241 ft 227 kts 223°
2026-05-05 18:41 59.33022 24.29360 16129 ft 219 kts 220°
2026-05-05 18:41 59.31747 24.27804 16995 ft 212 kts 220°
2026-05-05 18:41 59.30515 24.26347 17807 ft 207 kts 220°
2026-05-05 18:42 59.29284 24.24928 18554 ft 203 kts 220°
2026-05-05 18:42 59.28066 24.23561 19244 ft 201 kts 220°
2026-05-05 18:42 59.26853 24.22239 19926 ft 198 kts 219°
2026-05-05 18:42 59.25645 24.20953 20612 ft 197 kts 219°
2026-05-05 18:43 59.24439 24.19702 21296 ft 196 kts 219°
2026-05-05 18:43 59.23235 24.18486 21982 ft 194 kts 218°
2026-05-05 18:43 59.22032 24.17301 22679 ft 193 kts 218°
2026-05-05 18:43 59.20834 24.16156 23361 ft 191 kts 218°
2026-05-05 18:44 59.19636 24.15027 23908 ft 191 kts 217°